(474853) = 2005 SL90

Discovered at Kitt Peak on 2005-09-24 by Spacewatch.

Orbit

Orbit type: Main Belt

Note: WebGL enabled browser required.

epoch2024-03-31.0
epoch JD2460400.5
perihelion date2022-09-27.57815
perihelion JD2459850.07815
argument of perihelion (°)14.29687
ascending node (°)20.69648
inclination (°)10.74520
eccentricity0.2166155
perihelion distance (AU)2.4823850
Tisserand w.r.t. Jupiter3.1
ΔV w.r.t. Earth (km/sec)10.4
semimajor axis (AU)3.1687950
mean anomaly (°)96.17413
mean daily motion (°/day)0.17472810
aphelion distance (AU)3.855
period (years)5.64
P-vector [x]0.82074891
P-vector [y]0.50412848
P-vector [z]0.26874839
Q-vector [x]-0.56747644
Q-vector [y]0.66517016
Q-vector [z]0.48530315
absolute magnitude16.62
phase slope0.15
uncertainty0
referenceMPEC 2024-E23
observations used175
oppositions10
arc length (days)6734
first opposition used2005
last opposition used2024
residual rms (arc-secs)0.77
perturbers coarse indicatorM-v
perturbers precise indicator003Ek
first observation date used2005-09-24.0
last observation date used2024-03-02.0
computer nameMPCLINUX
JD of orbit computation2457657.282594
perihelion JD uncertainty (days)1.6593E-04
argument of perihelion uncertainty (°)3.9138E-05
ascending node uncertainty (°)2.7410E-05
inclination uncertainty (°)1.2787E-05
eccentricity uncertainty 1.6315E-07
perihelion distance uncertainty (AU)5.3896E-07
Minimum Orbit Intersection Distances (in AU)
for orbit epoch: 2460400.5, reference: E2024-E23
Mercury2.15656
Venus1.76191
Earth1.4904
Mars1.03742
Jupiter1.60789
Saturn5.85006
Uranus14.7413
Neptune26.8183

Observations

180 total observations over interval: 2005 09 24.41368 – 2024 03 02.347434
These data are available for download (format description).

Date (UT) J2000 RA J2000 Dec Magn Location Ref
2005 09 24.41368 02 09 55.85 +13 27 17.1 20.5 V 691 – Steward Observatory, Kitt Peak-Spacewatch MPS 144227
2005 09 24.43109 02 09 55.28 +13 27 19.9 20.2 V 691 – Steward Observatory, Kitt Peak-Spacewatch MPS 144227
2005 09 24.44850 02 09 54.72 +13 27 22.7 20.6 V 691 – Steward Observatory, Kitt Peak-Spacewatch MPS 144227
2005 09 30.33947 02 06 29.05 +13 41 11.9 20.4 V G96 – Mt. Lemmon Survey MPS 144227
2005 09 30.34613 02 06 28.76 +13 41 12.6 20.4 V G96 – Mt. Lemmon Survey MPS 144227
2005 09 30.35264 02 06 28.47 +13 41 13.6 20.4 V 691 – Steward Observatory, Kitt Peak-Spacewatch MPS 150757
2005 09 30.35280 02 06 28.51 +13 41 13.6 20.5 V G96 – Mt. Lemmon Survey MPS 144227
2005 09 30.35948 02 06 28.22 +13 41 14.4 20.3 V G96 – Mt. Lemmon Survey MPS 144227
2005 09 30.37007 02 06 27.76 +13 41 16.0 20.3 V 691 – Steward Observatory, Kitt Peak-Spacewatch MPS 150757
2005 09 30.38746 02 06 27.03 +13 41 18.2 20.3 V 691 – Steward Observatory, Kitt Peak-Spacewatch MPS 150757
2005 10 01.33580 02 05 49.27 +13 43 12.9 20.1 V G96 – Mt. Lemmon Survey MPS 144227
2005 10 01.34420 02 05 48.91 +13 43 14.0 20.0 V G96 – Mt. Lemmon Survey MPS 144227
2005 10 01.35251 02 05 48.55 +13 43 15.0 19.9 V G96 – Mt. Lemmon Survey MPS 144227
2005 10 01.36082 02 05 48.19 +13 43 15.9 19.8 V G96 – Mt. Lemmon Survey MPS 144227
2005 10 09.33924 01 59 45.25 +13 56 09.0 20.0 V 691 – Steward Observatory, Kitt Peak-Spacewatch MPS 144227
2005 10 09.35655 01 59 44.36 +13 56 10.3 20.1 V 691 – Steward Observatory, Kitt Peak-Spacewatch MPS 144227
2005 10 09.37394 01 59 43.47 +13 56 11.8 20.0 V 691 – Steward Observatory, Kitt Peak-Spacewatch MPS 144227
2005 10 13.31992 01 56 20.54 +14 00 34.9 20.0 V 691 – Steward Observatory, Kitt Peak-Spacewatch MPS 146167
2005 10 13.33839 01 56 19.54 +14 00 35.7 19.9 V 691 – Steward Observatory, Kitt Peak-Spacewatch MPS 146167
2005 10 13.35579 01 56 18.55 +14 00 34.8 19.6 V 691 – Steward Observatory, Kitt Peak-Spacewatch MPS 146167
2005 10 22.28598 01 48 07.44 +14 06 30.9 19.6 R 644 – Palomar Mountain/NEAT MPS 146167
2005 10 22.30823 01 48 06.12 +14 06 31.3 19.6 R 644 – Palomar Mountain/NEAT MPS 146167
2005 10 22.31209 01 48 05.79 +14 06 31.6 20.0 V 703 – Catalina Sky Survey MPS 146167
2005 10 22.32159 01 48 05.36 +14 06 31.2 19.9 V 703 – Catalina Sky Survey MPS 146167
2005 10 22.33104 01 48 04.75 +14 06 29.8 20.0 V 703 – Catalina Sky Survey MPS 146167
2005 10 22.33689 01 48 04.45 +14 06 31.6 20.2 R 644 – Palomar Mountain/NEAT MPS 146167
2005 10 22.34051 01 48 04.21 +14 06 31.9 20.0 V 703 – Catalina Sky Survey MPS 146167
2005 10 30.11794 01 40 52.67 +14 08 27.2 19.7 V 691 – Steward Observatory, Kitt Peak-Spacewatch MPS 147557
2005 10 30.12041 01 40 52.58 +14 08 28.0 19.7 V 691 – Steward Observatory, Kitt Peak-Spacewatch MPS 147557
2005 10 30.13341 01 40 51.86 +14 08 27.4 19.9 V 691 – Steward Observatory, Kitt Peak-Spacewatch MPS 147557
2005 10 30.13594 01 40 51.73 +14 08 27.6 20.0 V 691 – Steward Observatory, Kitt Peak-Spacewatch MPS 147557
2005 10 30.14886 01 40 51.00 +14 08 27.4 19.9 V 691 – Steward Observatory, Kitt Peak-Spacewatch MPS 147557
2005 10 30.15141 01 40 50.86 +14 08 27.8 19.9 V 691 – Steward Observatory, Kitt Peak-Spacewatch MPS 147557
2005 11 04.29653 01 36 21.13 +14 09 00.6 18.6 V 703 – Catalina Sky Survey MPS 149622
2005 11 04.30233 01 36 20.62 +14 09 04.7 19.4 V 703 – Catalina Sky Survey MPS 149622
2005 11 04.30816 01 36 20.30 +14 09 03.6 19.4 V 703 – Catalina Sky Survey MPS 149622
2005 11 04.31396 01 36 19.98 +14 09 03.9 19.4 V 703 – Catalina Sky Survey MPS 149622
2005 11 05.27885 01 35 31.84 +14 09 11.2 19.7 V 703 – Catalina Sky Survey MPS 149622
2005 11 05.28426 01 35 31.63 +14 09 11.5 19.6 V 703 – Catalina Sky Survey MPS 149622
2005 11 05.28965 01 35 31.34 +14 09 11.2 19.8 V 703 – Catalina Sky Survey MPS 149622
2005 11 05.29506 01 35 31.09 +14 09 12.5 19.1 V 703 – Catalina Sky Survey MPS 149623
2005 11 06.26967 01 34 43.43 +14 09 20.6 20.1   704 – Lincoln Laboratory ETS, New Mexico MPS 149623
2005 11 06.28218 01 34 42.79 +14 09 21.0 20.2   704 – Lincoln Laboratory ETS, New Mexico MPS 149623
2005 11 06.29462 01 34 42.15 +14 09 20.4 19.8   704 – Lincoln Laboratory ETS, New Mexico MPS 149623
2005 12 21.25977 01 24 00.91 +15 24 45.9   291 – LPL/Spacewatch II MPS 155982
2005 12 21.26706 01 24 01.08 +15 24 47.7   291 – LPL/Spacewatch II MPS 155982
2005 12 21.27432 01 24 01.24 +15 24 48.5   291 – LPL/Spacewatch II MPS 155982
2005 12 22.24240 01 24 24.53 +15 28 35.0   291 – LPL/Spacewatch II MPS 155982
2005 12 22.24804 01 24 24.66 +15 28 36.5   291 – LPL/Spacewatch II MPS 155982
2005 12 22.25361 01 24 24.77 +15 28 38.3   291 – LPL/Spacewatch II MPS 155982
2010 05 08.630420 21 33 54.69 -26 25 45.4   C51 – WISE MPS 326342
2010 05 08.762725 21 34 01.642 -26 25 36.73   C51 – WISE MPS 904517
2010 05 08.895029 21 34 08.52 -26 25 29.6   C51 – WISE MPS 326342
2010 05 09.093549 21 34 18.61 -26 25 19.0   C51 – WISE MPS 326342
2010 05 09.159637 21 34 22.250 -26 25 15.13   C51 – WISE MPS 904517
2010 05 09.490461 21 34 39.66 -26 24 55.4   C51 – WISE MPS 326342
2010 05 09.622765 21 34 46.598 -26 24 49.72   C51 – WISE MPS 904517
2010 05 09.755069 21 34 53.35 -26 24 40.7   C51 – WISE MPS 326342
2013 02 14.40524 11 38 20.218 +12 06 50.25 21.9 w F51 – Pan-STARRS 1, Haleakala MPS 453693
2013 02 14.41981 11 38 19.659 +12 06 53.61 21.7 w F51 – Pan-STARRS 1, Haleakala MPS 453693
2013 02 14.43445 11 38 19.067 +12 06 56.89 21.6 w F51 – Pan-STARRS 1, Haleakala MPS 453693
2013 02 14.44920 11 38 18.477 +12 07 00.12 21.7 w F51 – Pan-STARRS 1, Haleakala MPS 453693
2014 04 23.22763 14 13 59.10 -17 31 46.2 22.7 V W84 – Cerro Tololo-DECam MPS 511095
2014 04 23.22786 14 13 59.10 -17 31 46.1 22.0 V W84 – Cerro Tololo-DECam MPS 790917
2014 04 23.23102 14 13 58.94 -17 31 45.7   W84 – Cerro Tololo-DECam MPS 790917
2014 04 23.23395 14 13 58.79 -17 31 45.4 22.7 V W84 – Cerro Tololo-DECam MPS 511095
2014 04 23.23418 14 13 58.79 -17 31 45.4   W84 – Cerro Tololo-DECam MPS 790917
2014 04 23.23710 14 13 58.64 -17 31 45.0 22.7 V W84 – Cerro Tololo-DECam MPS 511095
2014 04 23.23733 14 13 58.64 -17 31 45.0   W84 – Cerro Tololo-DECam MPS 790917
2014 04 23.24027 14 13 58.49 -17 31 44.6 22.7 V W84 – Cerro Tololo-DECam MPS 511095
2014 04 23.24051 14 13 58.49 -17 31 44.6   W84 – Cerro Tololo-DECam MPS 790917
2014 04 25.24957 14 12 23.15 -17 27 28.1 22.2 V W84 – Cerro Tololo-DECam MPS 790917
2014 04 25.25268 14 12 23.00 -17 27 27.7   W84 – Cerro Tololo-DECam MPS 790917
2014 04 25.25587 14 12 22.84 -17 27 27.2   W84 – Cerro Tololo-DECam MPS 790917
2014 04 25.25916 14 12 22.68 -17 27 26.8   W84 – Cerro Tololo-DECam MPS 790917
2014 04 25.26240 14 12 22.53 -17 27 26.4   W84 – Cerro Tololo-DECam MPS 790917
2016 08 27.77692 00 16 08.69 -07 28 31.1 20.8 R D29 – Purple Mountain Observatory, XuYi Station MPS 725556
2016 08 27.79107 00 16 08.32 -07 28 32.3 20.8 R D29 – Purple Mountain Observatory, XuYi Station MPS 725556
2016 08 27.80521 00 16 07.76 -07 28 33.4 20.9 R D29 – Purple Mountain Observatory, XuYi Station MPS 725556
2016 09 02.74492 00 12 23.44 -07 38 00.7 20.6 R D29 – Purple Mountain Observatory, XuYi Station MPS 727698
2016 09 02.75906 00 12 22.91 -07 38 02.5 20.3 R D29 – Purple Mountain Observatory, XuYi Station MPS 727698
2016 09 02.77320 00 12 22.28 -07 38 03.8 20.7 R D29 – Purple Mountain Observatory, XuYi Station MPS 727698
2016 09 06.29843 00 09 50.03 -07 43 56.1 19.8 V G96 – Mt. Lemmon Survey MPS 727698
2016 09 06.30501 00 09 49.76 -07 43 56.9 19.6 V G96 – Mt. Lemmon Survey MPS 727698
2016 09 06.31160 00 09 49.41 -07 43 57.5 19.9 V G96 – Mt. Lemmon Survey MPS 727698
2016 09 08.47711 00 08 09.692 -07 47 31.90 20.1 w F51 – Pan-STARRS 1, Haleakala MPS 727698
2016 09 08.48813 00 08 09.156 -07 47 32.89 20.0 w F51 – Pan-STARRS 1, Haleakala MPS 727698
2016 09 08.49914 00 08 08.605 -07 47 34.03 20.0 w F51 – Pan-STARRS 1, Haleakala MPS 727698
2016 09 08.51013 00 08 08.072 -07 47 35.08 19.9 w F51 – Pan-STARRS 1, Haleakala MPS 727698
2016 09 25.36497 23 53 42.19 -08 08 22.9 19.6 V G96 – Mt. Lemmon Survey MPS 730702
2016 09 25.36932 23 53 41.97 -08 08 23.4 19.4 V G96 – Mt. Lemmon Survey MPS 730702
2016 09 25.37363 23 53 41.72 -08 08 23.2 19.7 V G96 – Mt. Lemmon Survey MPS 730702
